Simultaneous Nadir Overpasses (SNOs) Predictions

Prediction of SNOs between NOAA-20 and NOAA-19 Satellite Orbit:

Table of predicted SNOs for the next 14.0 days since TLE Epoch: 12/14/2018
Index Date (NOAA-20) Time (NOAA-20) Lat,Lon (NOAA-20) SZA (NOAA-20 ) Date (NOAA-19) Time (NOAA-19) Lat,Lon (NOAA-19) SZA (NOAA-19 ) Distance(km) Time Diff (sec)
1 12/15/2018 04:03:33 80.32, 76.49 105.82 12/15/2018 04:02:18 80.29, 76.31 105.85 4.87 75
2 12/15/2018 04:54:17 -80.31,-115.98 74.22 12/15/2018 04:53:12 -80.32,-115.97 74.18 1.35 65
3 12/15/2018 05:45:03 80.32, 51.10 105.83 12/15/2018 05:44:18 80.31, 51.14 105.83 1.67 45
4 12/15/2018 06:35:47 -80.31,-141.37 74.21 12/15/2018 06:35:13 -80.32,-141.47 74.18 2.27 34
5 12/15/2018 07:26:33 80.33, 25.72 105.83 12/15/2018 07:26:19 80.31, 25.64 105.84 2.23 14
6 12/15/2018 08:17:18 -80.33,-167.07 74.15 12/15/2018 08:17:14 -80.32,-166.98 74.17 2.54 4
7 12/15/2018 09:08:03 80.33, 0.33 105.84 12/15/2018 09:08:19 80.33, 0.46 105.82 2.54 16
8 12/15/2018 09:58:48 -80.33, 167.54 74.14 12/15/2018 09:59:15 -80.32, 167.52 74.17 1.94 27
9 12/15/2018 10:49:33 80.33, -25.06 105.85 12/15/2018 10:50:20 80.33, -25.04 105.83 0.40 47
10 12/15/2018 11:40:18 -80.34, 142.16 74.14 12/15/2018 11:41:16 -80.32, 142.02 74.16 3.29 58




NCC Satellite Simultaneous Nadir Overpasses (SNOs) Prediction Service
